Regional Weather Roundup
Issued by NWS

Home | Current Version | Previous Version | Text Only | Print | Product List | Glossary On
Versions: 1 2 3 4 5 6 7 8 9 10 11 12 13 14 15 16 17 18 19 20 21 22 23 24 25 26 27 28
000
ASUS43 KMPX 310710
RWRMN
WEATHER ROUNDUP FOR MINNESOTA
NATIONAL WEATHER SERVICE TWIN CITIES/CHANHASSEN MN
200 AM CDT SAT JUL 31 2021


NOTE: "FAIR" INDICATES FEW OR NO CLOUDS BELOW 12,000 FEET WITH NO
SIGNIFICANT WEATHER AND/OR OBSTRUCTIONS TO VISIBILITY. N/A MEANS
CURRENT SKY AND/OR WEATHER CONDITIONS ARE NOT AVAILABLE.

MNZ060>063-068>070-310800-
   Twin Cities Metro

CITY           SKY/WX    TMP DP  RH WIND       PRES   REMARKS
TWIN CITIES    PTCLDY    65  57  75 SW3       30.09S SMOKE
ST PAUL        CLEAR     65  58  78 CALM      30.09R SMOKE
CRYSTAL        CLEAR     64  55  72 W6        30.07S
EDEN PRAIRIE   PTCLDY    61  58  90 SW3       30.08F FOG
$$
MNZ001>005-007-008-013>017-022>024-027-028-310800-
   Northwest Minnesota

CITY           SKY/WX    TMP DP  RH WIND       PRES   REMARKS
THIEF RVR FALL PTCLDY    65  56  72 NW5       30.03R HAZE
PARK RAPIDS    CLOUDY    63  58  83 SW6       30.03F HAZE
$$
MNZ006-009>011-018-025>026-310800-
   North Central Minnesota

CITY           SKY/WX    TMP DP  RH WIND       PRES   REMARKS
BAUDETTE       CLEAR     59  58  96 CALM      29.99S
INTL FALLS     CLEAR     58  57  97 VRB3      29.97S
GRAND RAPIDS   PTCLDY    67  60  78 VRB6      29.88  HAZE
$$
MNZ012-019>021-037-310800-
   Northeast Minnesota

CITY           SKY/WX    TMP DP  RH WIND       PRES   REMARKS
DULUTH         CLOUDY    64  59  83 W10       30.00F SMOKE
HIBBING        CLOUDY    67  58  72 N6        30.02R HAZE
GRAND MARAIS     N/A     67  54  63 N10G25    29.91S
$$
MNZ029>031-032-039>041-046>048-054>057-064-310800-
   West Central Minnesota

CITY           SKY/WX    TMP DP  RH WIND       PRES   REMARKS
ALEXANDRIA     PTCLDY    61  59  93 SW7       30.09F FOG
$$
MNZ033>034-036-042>043-049>051-058-059-310800-
   Central Minnesota

CITY           SKY/WX    TMP DP  RH WIND       PRES   REMARKS
ST CLOUD       CLEAR     60  57  89 SW3       30.07F FOG
BRAINERD       CLOUDY    64  59  83 SW6       30.04F HAZE
CAMP RIPLEY    FAIR      62  59  90 SW3       30.07S
$$
MNZ037-044-045-052-053-310800-
   East Central Minnesota

CITY           SKY/WX    TMP DP  RH WIND       PRES   REMARKS
$$
MNZ071>073-080-081-089-090-097-098-310800-
   Southwest Minnesota

CITY           SKY/WX    TMP DP  RH WIND       PRES   REMARKS
MARSHALL       CLEAR     58  58 100 W3        30.11F FOG
REDWOOD FALLS  CLEAR     62  60  93 W6        30.10F FOG
WORTHINGTON    CLOUDY    57  57 100 CALM      30.14R FOG
$$
MNZ065>067-074>077-082>085-091>093-310800-
   South Central Minnesota

CITY           SKY/WX    TMP DP  RH WIND       PRES   REMARKS
MANKATO        MOCLDY    60  59  96 W5        30.12S FOG
FAIRMONT       CLOUDY    63  61  93 SW3       30.11F FOG
$$
MNZ078>079-086>088-094>096-310800-
   Southeast Minnesota

CITY           SKY/WX    TMP DP  RH WIND       PRES   REMARKS
ROCHESTER      FOG       62  62 100 W7        30.12S VSB 3/4
$$
ABBREVIATIONS USED IN REMARKS
   TC - TEMPERATURES IN CELSIUS
  WCI - WIND CHILL INDEX
   HX - HEAT INDEX
  VSB - VISIBILITY
$$



USA.gov is the U.S. government's official web portal to all federal, state and local government web resources and services.